Location: Croisilles
(50.1998°N, 2.8793°E)
Time: 20:29:13
(UTC+00:00)

Cosmos 1626 Rocket - Pass Details

Date: 21 January 2021
Orbit: 603 x 631 km, 82.5° (Epoch: 02 March)

Event Time Altitude Azimuth Distance (km) Brightness Sun altitude
Rises 18:03:02 0° 170° (S) 2,871 7.0 -15.5°
Reaches altitude 10° 18:05:18 10° 163° (SSE) 1,975 6.1 -15.9°
Maximum altitude 18:09:26 43° 92° (E) 883 3.9 -16.5°
Enters shadow 18:12:08 20° 31° (NNE) 1,460 5.1 -16.9°
